Starlink 32358

operational
NORAD ID: 61531 Int'l Des: 2024-183 Owner: SPXS Country: US Constellation: starlink
LEOCIRCULAR

Starlink 32358について

説明を読み込み中...

リアルタイム位置

3D地球を読み込み中...

次回通過

高度履歴

Altitude vs Time

uPlot chart will show altitude changes over time

軌道要素

1 61531U 24183Y 26062.49027706 .00003285 00000-0 12304-3 0 9996
2 61531 53.1606 171.2206 0000866 54.3754 305.7328 15.30183324 78706
Epoch: Mar 3, 2026 • Age: 16 hours

現在のステータス

高度 491.3 km
速度 7.62 km/s
衛星直下点 -45.56°S, 0.98°W
打ち上げ日 Oct 15, 2024
運用期間 1.3 years
タイプ internet

技術仕様

分類 Payload
質量 730.00 kg
乾燥質量 700.00 kg
総質量 730.00 kg
長さ 0.30 m
直径 4.10 m
スパン 29.00 m
形状 Box + pan
製造者 SPXS
バスタイプ Starlink V2M
フェーズステータス In Orbit
所有者/国 SPXS/US

大規模コンステレーション

Loading constellations...